Time,TemperatureF,DewpointF,PressureIn,WindDirection,WindDirectionDegrees,WindSpeedMPH,WindSpeedGustMPH,Humidity,HourlyPrecipIn,Conditions,Clouds,dailyrainin,SolarRadiationWatts/m^2,SoftwareType,DateUTC
2013-09-15 00:00:00,55.5,49.7,29.95,NNW,332,0.0,0.0,81,0.00,FEW,,0.37,0.0,WeatherDisplay:10.37,2013-09-14 22:00:00,
2013-09-15 00:05:00,55.4,49.6,29.95,NNW,332,0.0,0.0,81,0.00,FEW,,0.37,0.0,WeatherDisplay:10.37,2013-09-14 22:05:00,
2013-09-15 00:10:00,55.3,49.5,29.95,NNW,332,0.0,0.0,81,0.00,FEW,,0.37,0.0,WeatherDisplay:10.37,2013-09-14 22:10:00,
2013-09-15 00:15:00,55.3,49.5,29.95,NNW,332,0.0,0.0,81,0.00,RA,,0.00,0.0,WeatherDisplay:10.37,2013-09-14 22:15:00,
2013-09-15 00:20:00,55.1,49.4,29.95,NNW,332,0.0,0.0,81,0.00,RA,,0.00,0.0,WeatherDisplay:10.37,2013-09-14 22:20:00,
2013-09-15 00:25:00,55.0,49.3,29.95,NNW,332,0.0,0.0,81,0.00,RA,,0.00,0.0,WeatherDisplay:10.37,2013-09-14 22:25:00,
2013-09-15 00:30:00,54.9,49.5,29.95,NNW,332,0.0,0.0,82,0.00,RA,,0.00,0.0,WeatherDisplay:10.37,2013-09-14 22:30:00,
2013-09-15 00:35:00,54.7,49.3,29.95,NNW,332,0.0,0.0,82,0.00,RA,,0.00,0.0,WeatherDisplay:10.37,2013-09-14 22:35:00,
2013-09-15 00:38:00,54.1,49.4,29.95,NNW,332,0.0,0.0,84,0.00,FEW,,0.00,0.0,WeatherDisplay:10.37,2013-09-14 22:38:00,
2013-09-15 00:39:00,54.1,49.4,29.95,NNW,332,0.0,0.0,84,0.00,FEW,,0.00,0.0,WeatherDisplay:10.37,2013-09-14 22:39:00,
2013-09-15 00:40:00,54.5,49.4,29.95,NNW,332,0.0,0.0,83,0.00,FEW,,0.00,0.0,WeatherDisplay:10.37,2013-09-14 22:40:00,
2013-09-15 00:41:00,54.0,49.6,29.95,NNW,332,0.0,0.0,85,0.00,FEW,,0.00,0.0,WeatherDisplay:10.37,2013-09-14 22:41:00,
2013-09-15 00:42:00,53.9,49.5,29.95,NNW,332,0.0,0.0,85,0.00,FEW,,0.00,0.0,WeatherDisplay:10.37,2013-09-14 22:42:00,
2013-09-15 00:43:00,53.9,49.5,29.95,NNW,332,0.0,0.0,85,0.00,FEW,,0.00,0.0,WeatherDisplay:10.37,2013-09-14 22:43:00,
2013-09-15 00:44:00,53.9,49.5,29.95,NNW,332,0.0,0.0,85,0.00,FEW,,0.00,0.0,WeatherDisplay:10.37,2013-09-14 22:44:00,
2013-09-15 00:45:00,54.3,49.2,29.95,NNW,332,0.0,0.0,83,0.00,FEW,,0.00,0.0,WeatherDisplay:10.37,2013-09-14 22:45:00,
2013-09-15 00:46:00,53.8,49.4,29.95,NNW,332,0.0,0.0,85,0.00,FEW,,0.00,0.0,WeatherDisplay:10.37,2013-09-14 22:46:00,
2013-09-15 00:47:00,53.8,49.4,29.95,NNW,332,0.0,0.0,85,0.00,FEW,,0.00,0.0,WeatherDisplay:10.37,2013-09-14 22:47:00,
2013-09-15 00:48:00,53.8,49.4,29.95,NNW,332,0.0,0.0,85,0.00,FEW,,0.00,0.0,WeatherDisplay:10.37,2013-09-14 22:48:00,
2013-09-15 00:50:00,54.1,49.4,29.95,NNW,332,0.0,0.0,84,0.00,FEW,,0.00,0.0,WeatherDisplay:10.37,2013-09-14 22:50:00,
2013-09-15 00:51:00,53.7,49.6,29.95,NNW,332,0.0,0.0,86,0.00,BKN,,0.00,0.0,WeatherDisplay:10.37,2013-09-14 22:51:00,
2013-09-15 00:55:00,53.9,49.5,29.95,NNW,332,0.0,0.0,85,0.00,FEW,,0.00,0.0,WeatherDisplay:10.37,2013-09-14 22:55:00,
2013-09-15 01:00:00,53.8,49.4,29.95,NNW,332,0.0,0.0,85,0.00,FEW,,0.00,0.0,WeatherDisplay:10.37,2013-09-14 23:00:00,
2013-09-15 01:05:00,53.7,49.6,29.95,NNW,332,0.0,0.0,86,0.00,BKN,,0.00,0.0,WeatherDisplay:10.37,2013-09-14 23:05:00,
2013-09-15 01:10:00,53.5,49.4,29.95,NNW,332,0.0,0.0,86,0.00,BKN,,0.00,0.0,WeatherDisplay:10.37,2013-09-14 23:10:00,
2013-09-15 01:15:00,53.4,49.6,29.95,NNW,332,0.0,0.0,87,0.00,BKN,,0.00,0.0,WeatherDisplay:10.37,2013-09-14 23:15:00,
2013-09-15 01:20:00,53.4,49.6,29.95,NNW,332,0.0,0.0,87,0.00,BKN,,0.00,0.0,WeatherDisplay:10.37,2013-09-14 23:20:00,
2013-09-15 01:25:00,53.3,49.5,29.95,NNW,332,0.0,0.0,87,0.00,BKN,,0.00,0.0,WeatherDisplay:10.37,2013-09-14 23:25:00,
2013-09-15 01:30:00,53.1,49.6,29.95,NNW,332,0.0,0.0,88,0.00,BKN,,0.00,0.0,WeatherDisplay:10.37,2013-09-14 23:30:00,
2013-09-15 01:35:00,52.9,49.4,29.95,NNW,332,0.0,0.0,88,0.00,BKN,,0.00,0.0,WeatherDisplay:10.37,2013-09-14 23:35:00,
2013-09-15 01:40:00,52.6,49.1,29.95,NNW,332,0.0,0.0,88,0.00,BKN,,0.00,0.0,WeatherDisplay:10.37,2013-09-14 23:40:00,
2013-09-15 01:45:00,52.4,48.9,29.95,NNW,332,0.0,0.0,88,0.00,BKN,,0.00,0.0,WeatherDisplay:10.37,2013-09-14 23:45:00,
2013-09-15 01:50:00,52.2,48.7,29.95,NNW,332,0.0,0.0,88,0.00,BKN,,0.00,0.0,WeatherDisplay:10.37,2013-09-14 23:50:00,
2013-09-15 01:55:00,52.0,48.8,29.95,NNW,332,0.0,0.0,89,0.00,BKN,,0.00,0.0,WeatherDisplay:10.37,2013-09-14 23:55:00,
2013-09-15 02:00:00,51.9,48.7,29.95,NNW,332,0.0,0.0,89,0.00,BKN,,0.00,0.0,WeatherDisplay:10.37,2013-09-15 00:00:00,
2013-09-15 02:05:00,51.7,48.5,29.95,NNW,332,0.0,0.0,89,0.00,FEW,,0.00,0.0,WeatherDisplay:10.37,2013-09-15 00:05:00,
2013-09-15 02:10:00,51.7,48.8,29.95,NNW,332,0.0,0.0,90,0.00,FEW,,0.00,0.0,WeatherDisplay:10.37,2013-09-15 00:10:00,
2013-09-15 02:15:00,51.7,48.8,29.95,NNW,332,0.0,0.0,90,0.00,FEW,,0.00,0.0,WeatherDisplay:10.37,2013-09-15 00:15:00,
2013-09-15 02:20:00,51.7,49.1,29.95,NNW,332,0.0,0.0,91,0.00,FEW,,0.00,0.0,WeatherDisplay:10.37,2013-09-15 00:20:00,
2013-09-15 02:25:00,51.7,49.1,29.95,NNW,332,0.0,0.0,91,0.00,FEW,,0.00,0.0,WeatherDisplay:10.37,2013-09-15 00:25:00,
2013-09-15 02:30:00,51.7,49.1,29.95,NNW,332,0.0,0.0,91,0.00,FEW,,0.00,0.0,WeatherDisplay:10.37,2013-09-15 00:30:00,
2013-09-15 02:35:00,51.8,49.2,29.95,NNW,332,0.0,0.0,91,0.00,CLR,,0.00,0.0,WeatherDisplay:10.37,2013-09-15 00:35:00,
2013-09-15 02:40:00,51.8,49.2,29.95,NNW,332,0.0,0.0,91,0.00,CLR,,0.00,0.0,WeatherDisplay:10.37,2013-09-15 00:40:00,
2013-09-15 02:45:00,51.8,49.2,29.94,NNW,332,0.0,0.0,91,0.00,CLR,,0.00,0.0,WeatherDisplay:10.37,2013-09-15 00:45:00,
2013-09-15 02:50:00,51.6,49.0,29.94,NNW,332,0.0,0.0,91,0.00,CLR,,0.00,0.0,WeatherDisplay:10.37,2013-09-15 00:50:00,
2013-09-15 02:55:00,51.5,48.9,29.94,NNW,332,0.0,0.0,91,0.00,CLR,,0.00,0.0,WeatherDisplay:10.37,2013-09-15 00:55:00,
2013-09-15 03:00:00,51.4,48.8,29.94,NNW,332,0.0,0.0,91,0.00,CLR,,0.00,0.0,WeatherDisplay:10.37,2013-09-15 01:00:00,
2013-09-15 03:05:00,51.2,48.6,29.94,NNW,332,0.0,0.0,91,0.00,CLR,,0.00,0.0,WeatherDisplay:10.37,2013-09-15 01:05:00,
2013-09-15 03:10:00,51.0,48.4,29.94,NNW,332,0.0,0.0,91,0.00,CLR,,0.00,0.0,WeatherDisplay:10.37,2013-09-15 01:10:00,
2013-09-15 03:15:00,50.9,48.3,29.94,NNW,332,0.0,0.0,91,0.00,CLR,,0.00,0.0,WeatherDisplay:10.37,2013-09-15 01:15:00,
2013-09-15 03:20:00,50.7,48.4,29.94,NNW,332,0.0,0.0,92,0.00,CLR,,0.00,0.0,WeatherDisplay:10.37,2013-09-15 01:20:00,
2013-09-15 03:25:00,50.6,48.0,29.94,NNW,332,0.0,0.0,91,0.00,CLR,,0.00,0.0,WeatherDisplay:10.37,2013-09-15 01:25:00,
2013-09-15 03:30:00,50.5,48.2,29.94,NNW,332,0.0,0.0,92,0.00,CLR,,0.00,0.0,WeatherDisplay:10.37,2013-09-15 01:30:00,
2013-09-15 03:35:00,50.5,48.2,29.94,NNW,332,0.0,0.0,92,0.00,CLR,,0.00,0.0,WeatherDisplay:10.37,2013-09-15 01:35:00,
2013-09-15 03:40:00,50.5,48.5,29.94,NNW,332,0.0,0.0,93,0.00,CLR,,0.00,0.0,WeatherDisplay:10.37,2013-09-15 01:40:00,
2013-09-15 03:45:00,50.6,48.6,29.94,NNW,332,0.0,0.0,93,0.00,CLR,,0.00,0.0,WeatherDisplay:10.37,2013-09-15 01:45:00,
2013-09-15 03:50:00,50.7,48.7,29.94,NNW,332,0.0,0.0,93,0.00,CLR,,0.00,0.0,WeatherDisplay:10.37,2013-09-15 01:50:00,
2013-09-15 03:51:00,50.9,48.9,29.93,NNW,332,0.0,0.0,93,0.00,FEW,,0.00,0.0,WeatherDisplay:10.37,2013-09-15 01:51:00,
2013-09-15 03:52:00,50.9,48.9,29.93,NNW,332,0.0,0.0,93,0.00,FEW,,0.00,0.0,WeatherDisplay:10.37,2013-09-15 01:52:00,
2013-09-15 03:53:00,50.9,48.9,29.93,NNW,332,0.0,0.0,93,0.00,FEW,,0.00,0.0,WeatherDisplay:10.37,2013-09-15 01:53:00,
2013-09-15 03:54:00,51.0,49.0,29.93,NNW,332,0.0,0.0,93,0.00,FEW,,0.00,0.0,WeatherDisplay:10.37,2013-09-15 01:54:00,
2013-09-15 03:55:00,50.8,48.8,29.94,NNW,332,0.0,0.0,93,0.00,CLR,,0.00,0.0,WeatherDisplay:10.37,2013-09-15 01:55:00,
2013-09-15 03:56:00,51.0,49.0,29.93,NNW,332,0.0,0.0,93,0.00,FEW,,0.00,0.0,WeatherDisplay:10.37,2013-09-15 01:56:00,
2013-09-15 03:57:00,51.0,49.0,29.94,NNW,332,0.0,0.0,93,0.00,FEW,,0.00,0.0,WeatherDisplay:10.37,2013-09-15 01:57:00,
2013-09-15 04:00:00,50.9,48.9,29.94,NNW,332,0.0,0.0,93,0.00,CLR,,0.00,0.0,WeatherDisplay:10.37,2013-09-15 02:00:00,
2013-09-15 04:05:00,50.9,48.9,29.93,NNW,332,0.0,0.0,93,0.00,FEW,,0.00,0.0,WeatherDisplay:10.37,2013-09-15 02:05:00,
2013-09-15 04:10:00,51.0,49.0,29.94,NNW,332,0.0,0.0,93,0.00,FEW,,0.00,0.0,WeatherDisplay:10.37,2013-09-15 02:10:00,
2013-09-15 04:15:00,51.1,49.1,29.93,NNW,332,0.0,0.0,93,0.00,FEW,,0.00,0.0,WeatherDisplay:10.37,2013-09-15 02:15:00,
2013-09-15 04:20:00,51.2,49.2,29.93,NNW,332,0.0,0.0,93,0.00,FEW,,0.00,0.0,WeatherDisplay:10.37,2013-09-15 02:20:00,
2013-09-15 04:25:00,51.2,49.2,29.93,NNW,332,0.4,1.2,93,0.00,FEW,,0.00,0.0,WeatherDisplay:10.37,2013-09-15 02:25:00,
2013-09-15 04:30:00,51.3,49.3,29.93,NNW,332,0.0,0.0,93,0.00,FEW,,0.00,0.0,WeatherDisplay:10.37,2013-09-15 02:30:00,
2013-09-15 04:35:00,51.3,49.3,29.93,NNW,332,0.0,0.0,93,0.00,CLR,,0.00,0.0,WeatherDisplay:10.37,2013-09-15 02:35:00,
2013-09-15 04:40:00,51.3,49.3,29.93,NNW,332,0.0,0.0,93,0.00,CLR,,0.00,0.0,WeatherDisplay:10.37,2013-09-15 02:40:00,
2013-09-15 04:45:00,51.2,49.2,29.93,NNW,332,0.0,0.0,93,0.00,CLR,,0.00,0.0,WeatherDisplay:10.37,2013-09-15 02:45:00,
2013-09-15 04:50:00,51.1,49.1,29.93,NNW,332,0.0,0.0,93,0.00,CLR,,0.00,0.0,WeatherDisplay:10.37,2013-09-15 02:50:00,
2013-09-15 04:55:00,51.0,49.0,29.92,NNW,332,0.0,0.0,93,0.00,CLR,,0.00,0.0,WeatherDisplay:10.37,2013-09-15 02:55:00,
2013-09-15 05:00:00,50.9,48.6,29.92,NNW,332,0.0,0.0,92,0.00,CLR,,0.00,0.0,WeatherDisplay:10.37,2013-09-15 03:00:00,
2013-09-15 05:05:00,50.8,48.8,29.92,NNW,332,0.0,0.0,93,0.00,CLR,,0.00,0.0,WeatherDisplay:10.37,2013-09-15 03:05:00,
2013-09-15 05:10:00,50.6,48.6,29.92,NNW,332,0.0,0.0,93,0.00,CLR,,0.00,0.0,WeatherDisplay:10.37,2013-09-15 03:10:00,
2013-09-15 05:15:00,50.5,48.5,29.92,NNW,332,0.0,0.0,93,0.00,CLR,,0.00,0.0,WeatherDisplay:10.37,2013-09-15 03:15:00,
2013-09-15 05:20:00,50.4,48.4,29.92,NNW,332,0.0,0.0,93,0.00,CLR,,0.00,0.0,WeatherDisplay:10.37,2013-09-15 03:20:00,
2013-09-15 05:25:00,50.3,48.3,29.92,NNW,332,0.0,0.0,93,0.00,CLR,,0.00,0.0,WeatherDisplay:10.37,2013-09-15 03:25:00,
2013-09-15 05:30:00,50.2,48.2,29.92,NNW,332,0.0,0.0,93,0.00,CLR,,0.00,0.0,WeatherDisplay:10.37,2013-09-15 03:30:00,
2013-09-15 05:35:00,50.1,48.1,29.92,NNW,332,0.0,0.0,93,0.00,CLR,,0.00,0.0,WeatherDisplay:10.37,2013-09-15 03:35:00,
2013-09-15 05:40:00,50.0,48.0,29.92,NNW,332,0.0,0.0,93,0.00,CLR,,0.00,0.0,WeatherDisplay:10.37,2013-09-15 03:40:00,
2013-09-15 05:45:00,49.9,47.9,29.92,NNW,332,0.0,0.0,93,0.00,CLR,,0.00,0.0,WeatherDisplay:10.37,2013-09-15 03:45:00,
2013-09-15 05:49:00,49.7,47.7,29.91,NNW,332,0.0,0.0,93,0.00,CLR,,0.00,0.0,WeatherDisplay:10.37,2013-09-15 03:49:00,
2013-09-15 05:50:00,49.8,47.8,29.91,NNW,332,0.0,0.0,93,0.00,CLR,,0.00,0.0,WeatherDisplay:10.37,2013-09-15 03:50:00,
2013-09-15 05:51:00,49.7,47.7,29.91,NNW,332,0.0,0.0,93,0.00,CLR,,0.00,0.0,WeatherDisplay:10.37,2013-09-15 03:51:00,
2013-09-15 05:52:00,49.7,47.7,29.91,NNW,332,0.0,0.0,93,0.00,CLR,,0.00,0.0,WeatherDisplay:10.37,2013-09-15 03:52:00,
2013-09-15 05:53:00,49.7,47.7,29.91,NNW,332,0.0,0.0,93,0.00,CLR,,0.00,0.0,WeatherDisplay:10.37,2013-09-15 03:53:00,
2013-09-15 05:54:00,49.7,47.7,29.91,NNW,332,0.0,0.0,93,0.00,CLR,,0.00,0.0,WeatherDisplay:10.37,2013-09-15 03:54:00,
2013-09-15 05:55:00,49.7,47.7,29.91,NNW,332,0.0,0.0,93,0.00,CLR,,0.00,0.0,WeatherDisplay:10.37,2013-09-15 03:55:00,
2013-09-15 05:56:00,49.8,47.8,29.91,NNW,332,0.0,0.0,93,0.00,CLR,,0.00,0.0,WeatherDisplay:10.37,2013-09-15 03:56:00,
2013-09-15 05:57:00,49.8,47.8,29.91,NNW,332,0.0,0.0,93,0.00,CLR,,0.00,0.0,WeatherDisplay:10.37,2013-09-15 03:57:00,
2013-09-15 05:58:00,49.8,47.8,29.91,NNW,332,0.0,0.0,93,0.00,CLR,,0.00,0.0,WeatherDisplay:10.37,2013-09-15 03:58:00,
2013-09-15 05:59:00,49.8,47.8,29.91,NNW,332,0.0,0.0,93,0.00,CLR,,0.00,0.0,WeatherDisplay:10.37,2013-09-15 03:59:00,
2013-09-15 06:00:00,49.7,47.7,29.91,NNW,332,0.0,0.0,93,0.00,CLR,,0.00,0.0,WeatherDisplay:10.37,2013-09-15 04:00:00,
2013-09-15 06:01:00,49.9,48.2,29.91,NNW,332,0.0,0.0,94,0.00,CLR,,0.00,0.0,WeatherDisplay:10.37,2013-09-15 04:01:00,
2013-09-15 06:02:00,49.9,48.2,29.91,NNW,332,0.0,0.0,94,0.00,CLR,,0.00,0.0,WeatherDisplay:10.37,2013-09-15 04:02:00,
2013-09-15 06:03:00,49.9,48.2,29.91,NNW,332,0.0,0.0,94,0.00,CLR,,0.00,0.0,WeatherDisplay:10.37,2013-09-15 04:03:00,
2013-09-15 06:04:00,49.9,48.2,29.91,NNW,332,0.0,0.0,94,0.00,CLR,,0.00,0.0,WeatherDisplay:10.37,2013-09-15 04:04:00,
2013-09-15 06:05:00,49.7,47.7,29.91,NNW,332,0.0,0.0,93,0.00,CLR,,0.00,0.0,WeatherDisplay:10.37,2013-09-15 04:05:00,
2013-09-15 06:10:00,49.9,47.9,29.91,NNW,332,0.0,0.0,93,0.00,CLR,,0.00,0.0,WeatherDisplay:10.37,2013-09-15 04:10:00,
2013-09-15 06:15:00,49.9,48.2,29.91,NNW,332,0.0,0.0,94,0.00,CLR,,0.00,0.0,WeatherDisplay:10.37,2013-09-15 04:15:00,
2013-09-15 06:20:00,50.1,48.4,29.91,NNW,332,0.0,0.0,94,0.00,CLR,,0.00,0.0,WeatherDisplay:10.37,2013-09-15 04:20:00,
2013-09-15 06:25:00,50.2,48.5,29.91,NNW,332,0.0,0.0,94,0.00,CLR,,0.00,0.0,WeatherDisplay:10.37,2013-09-15 04:25:00,
2013-09-15 06:30:00,50.3,48.6,29.91,NNW,332,0.0,0.0,94,0.00,CLR,,0.00,0.0,WeatherDisplay:10.37,2013-09-15 04:30:00,
2013-09-15 06:35:00,50.3,48.6,29.90,NNW,332,0.0,0.0,94,0.00,OVC,,0.00,0.0,WeatherDisplay:10.37,2013-09-15 04:35:00,
2013-09-15 06:40:00,50.3,48.6,29.91,NNW,332,0.0,0.0,94,0.00,OVC,,0.00,0.0,WeatherDisplay:10.37,2013-09-15 04:40:00,
2013-09-15 06:45:00,50.3,48.6,29.91,NNW,332,0.0,0.0,94,0.00,OVC,,0.00,0.0,WeatherDisplay:10.37,2013-09-15 04:45:00,
2013-09-15 06:50:00,50.4,48.7,29.91,NNW,332,0.0,0.0,94,0.00,OVC,,0.00,0.0,WeatherDisplay:10.37,2013-09-15 04:50:00,
2013-09-15 06:55:00,50.5,48.8,29.90,NNW,332,0.0,0.0,94,0.00,OVC,,0.00,0.0,WeatherDisplay:10.37,2013-09-15 04:55:00,
2013-09-15 07:00:00,50.6,48.9,29.91,NNW,332,0.0,0.0,94,0.00,OVC,,0.00,0.0,WeatherDisplay:10.37,2013-09-15 05:00:00,
2013-09-15 07:05:00,50.7,49.0,29.90,NNW,332,0.0,0.0,94,0.00,OVC,,0.00,0.0,WeatherDisplay:10.37,2013-09-15 05:05:00,
2013-09-15 07:10:00,50.8,49.1,29.90,NNW,332,0.0,0.0,94,0.00,OVC,,0.00,0.0,WeatherDisplay:10.37,2013-09-15 05:10:00,
2013-09-15 07:15:00,50.7,49.0,29.90,NNW,332,0.0,0.0,94,0.00,OVC,,0.00,0.0,WeatherDisplay:10.37,2013-09-15 05:15:00,
2013-09-15 07:20:00,50.6,48.6,29.90,NNW,332,0.0,0.0,93,0.00,OVC,,0.00,5.0,WeatherDisplay:10.37,2013-09-15 05:20:00,
2013-09-15 07:25:00,50.5,48.5,29.90,NNW,332,0.0,0.0,93,0.00,OVC,,0.00,7.0,WeatherDisplay:10.37,2013-09-15 05:25:00,
2013-09-15 07:30:00,50.4,48.4,29.90,NNW,332,0.0,0.0,93,0.00,OVC,,0.00,9.0,WeatherDisplay:10.37,2013-09-15 05:30:00,
2013-09-15 07:35:00,50.3,48.3,29.90,NNW,332,0.0,0.0,93,0.00,FEW,,0.00,11.0,WeatherDisplay:10.37,2013-09-15 05:35:00,
2013-09-15 07:40:00,50.2,48.2,29.90,NNW,332,0.0,0.0,93,0.00,FEW,,0.00,14.0,WeatherDisplay:10.37,2013-09-15 05:40:00,
2013-09-15 07:45:00,50.1,48.1,29.90,NNW,332,0.0,0.0,93,0.00,FEW,,0.00,26.0,WeatherDisplay:10.37,2013-09-15 05:45:00,
2013-09-15 07:50:00,50.1,48.1,29.90,NNW,332,0.0,0.0,93,0.00,FEW,,0.00,25.0,WeatherDisplay:10.37,2013-09-15 05:50:00,
2013-09-15 07:55:00,50.1,48.1,29.90,NNW,332,0.0,0.0,93,0.00,FEW,,0.00,28.0,WeatherDisplay:10.37,2013-09-15 05:55:00,
2013-09-15 08:00:00,50.1,48.1,29.90,NNW,332,0.0,0.0,93,0.00,FEW,,0.00,42.0,WeatherDisplay:10.37,2013-09-15 06:00:00,
2013-09-15 08:05:00,50.2,48.2,29.91,NNW,332,0.0,0.0,93,0.00,CLR,,0.00,77.0,WeatherDisplay:10.37,2013-09-15 06:05:00,
2013-09-15 08:10:00,50.3,48.3,29.90,NNW,332,0.0,0.0,93,0.00,CLR,,0.00,81.0,WeatherDisplay:10.37,2013-09-15 06:10:00,
2013-09-15 08:15:00,50.6,48.6,29.90,NNW,332,0.0,0.0,93,0.00,CLR,,0.00,69.0,WeatherDisplay:10.37,2013-09-15 06:15:00,
2013-09-15 08:20:00,50.7,48.7,29.90,NNW,332,0.0,0.0,93,0.00,CLR,,0.00,79.0,WeatherDisplay:10.37,2013-09-15 06:20:00,
2013-09-15 08:25:00,50.9,48.9,29.90,NNW,332,0.0,0.0,93,0.00,CLR,,0.00,35.0,WeatherDisplay:10.37,2013-09-15 06:25:00,
2013-09-15 08:30:00,51.1,49.1,29.90,NNW,332,0.0,0.0,93,0.00,OVC,,0.00,33.0,WeatherDisplay:10.37,2013-09-15 06:30:00,
2013-09-15 08:35:00,51.3,49.3,29.90,NNW,332,0.0,0.0,93,0.00,BKN,,0.00,123.0,WeatherDisplay:10.37,2013-09-15 06:35:00,
2013-09-15 08:40:00,51.4,49.1,29.90,NNW,332,0.0,0.0,92,0.00,BKN,,0.00,137.0,WeatherDisplay:10.37,2013-09-15 06:40:00,
2013-09-15 08:45:00,51.6,49.3,29.90,NNW,332,0.0,0.0,92,0.00,BKN,,0.00,156.0,WeatherDisplay:10.37,2013-09-15 06:45:00,
2013-09-15 08:50:00,51.9,49.6,29.90,NNW,332,0.0,0.0,92,0.00,BKN,,0.00,176.0,WeatherDisplay:10.37,2013-09-15 06:50:00,
2013-09-15 08:55:00,52.0,49.7,29.89,NNW,332,0.0,0.0,92,0.00,BKN,,0.00,190.0,WeatherDisplay:10.37,2013-09-15 06:55:00,
2013-09-15 09:00:00,52.3,50.0,29.89,West,275,0.0,0.0,92,0.00,BKN,,0.00,206.0,WeatherDisplay:10.37,2013-09-15 07:00:00,
2013-09-15 09:05:00,52.7,50.1,29.89,West,272,0.2,1.0,91,0.00,BKN,,0.00,223.0,WeatherDisplay:10.37,2013-09-15 07:05:00,
2013-09-15 09:10:00,53.2,50.0,29.89,West,272,4.5,5.0,89,0.00,BKN,,0.00,239.0,WeatherDisplay:10.37,2013-09-15 07:10:00,
2013-09-15 09:15:00,54.0,49.3,29.89,West,272,2.6,4.6,84,0.00,BKN,,0.00,251.0,WeatherDisplay:10.37,2013-09-15 07:15:00,
2013-09-15 09:20:00,54.8,49.1,29.90,West,272,0.0,0.0,81,0.00,BKN,,0.00,265.0,WeatherDisplay:10.37,2013-09-15 07:20:00,
2013-09-15 09:25:00,55.5,48.7,29.89,West,272,3.5,4.6,78,0.00,BKN,,0.00,278.0,WeatherDisplay:10.37,2013-09-15 07:25:00,
2013-09-15 09:30:00,56.0,47.8,29.89,West,263,2.2,8.1,74,0.00,BKN,,0.00,292.0,WeatherDisplay:10.37,2013-09-15 07:30:00,
2013-09-15 09:35:00,56.5,47.9,29.89,West,267,4.4,8.1,73,0.00,FEW,,0.00,306.0,WeatherDisplay:10.37,2013-09-15 07:35:00,
2013-09-15 09:40:00,57.3,47.6,29.90,West,274,3.5,5.8,70,0.00,FEW,,0.00,341.0,WeatherDisplay:10.37,2013-09-15 07:40:00,
2013-09-15 09:41:00,56.8,47.5,29.90,WNW,293,4.2,9.2,71,0.00,FEW,,0.00,339.0,WeatherDisplay:10.37,2013-09-15 07:41:00,
2013-09-15 09:42:00,57.3,47.6,29.90,West,274,2.7,4.6,70,0.00,FEW,,0.00,227.0,WeatherDisplay:10.37,2013-09-15 07:42:00,
2013-09-15 09:43:00,57.3,47.2,29.90,West,274,1.7,5.8,69,0.00,FEW,,0.00,227.0,WeatherDisplay:10.37,2013-09-15 07:43:00,
2013-09-15 09:44:00,57.3,47.2,29.90,West,274,2.0,3.5,69,0.00,FEW,,0.00,327.0,WeatherDisplay:10.37,2013-09-15 07:44:00,
2013-09-15 09:45:00,57.3,47.6,29.90,West,274,1.4,3.5,70,0.00,FEW,,0.00,390.0,WeatherDisplay:10.37,2013-09-15 07:45:00,
2013-09-15 09:46:00,57.1,47.0,29.90,WNW,288,4.4,6.9,69,0.00,FEW,,0.00,69.0,WeatherDisplay:10.37,2013-09-15 07:46:00,
2013-09-15 09:51:00,57.3,47.2,29.90,West,274,3.3,5.8,69,0.00,FEW,,0.00,341.0,WeatherDisplay:10.37,2013-09-15 07:51:00,
2013-09-15 09:56:00,57.3,47.6,29.90,West,274,2.8,3.5,70,0.00,FEW,,0.00,390.0,WeatherDisplay:10.37,2013-09-15 07:56:00,
2013-09-15 10:01:00,57.5,47.4,29.89,West,268,3.7,4.6,69,0.00,FEW,,0.00,388.0,WeatherDisplay:10.37,2013-09-15 08:01:00,
2013-09-15 10:06:00,57.8,47.7,29.89,West,268,1.5,3.5,69,0.00,FEW,,0.00,404.0,WeatherDisplay:10.37,2013-09-15 08:06:00,
2013-09-15 10:11:00,58.1,47.6,29.89,West,266,2.2,5.8,68,0.00,FEW,,0.00,415.0,WeatherDisplay:10.37,2013-09-15 08:11:00,
2013-09-15 10:16:00,58.3,47.0,29.89,West,268,3.1,6.9,66,0.00,FEW,,0.00,413.0,WeatherDisplay:10.37,2013-09-15 08:16:00,
2013-09-15 10:21:00,58.4,46.2,29.89,WNW,283,5.2,8.1,64,0.00,FEW,,0.00,443.0,WeatherDisplay:10.37,2013-09-15 08:21:00,
2013-09-15 10:26:00,58.5,46.8,29.89,WSW,250,6.2,9.2,65,0.00,FEW,,0.00,561.0,WeatherDisplay:10.37,2013-09-15 08:26:00,
2013-09-15 10:31:00,58.8,46.6,29.89,West,269,6.7,9.2,64,0.00,FEW,,0.00,554.0,WeatherDisplay:10.37,2013-09-15 08:31:00,
2013-09-15 10:36:00,58.9,46.3,29.89,WSW,258,4.0,6.9,63,0.00,SCT,,0.00,529.0,WeatherDisplay:10.37,2013-09-15 08:36:00,
2013-09-15 10:41:00,59.2,47.0,29.88,WSW,241,5.2,10.4,64,0.00,FEW,,0.00,575.0,WeatherDisplay:10.37,2013-09-15 08:41:00,
2013-09-15 10:46:00,59.5,48.1,29.88,WSW,240,6.4,9.2,66,0.00,SCT,,0.00,594.0,WeatherDisplay:10.37,2013-09-15 08:46:00,
2013-09-15 10:51:00,59.7,48.3,29.88,WSW,249,7.4,8.1,66,0.00,SCT,,0.00,559.0,WeatherDisplay:10.37,2013-09-15 08:51:00,
2013-09-15 10:56:00,59.7,47.9,29.88,WSW,241,5.8,8.1,65,0.00,BKN,,0.00,100.0,WeatherDisplay:10.37,2013-09-15 08:56:00,
2013-09-15 11:01:00,59.2,47.0,29.88,WSW,238,7.0,11.5,64,0.00,OVC,,0.00,120.0,WeatherDisplay:10.37,2013-09-15 09:01:00,
2013-09-15 11:06:00,58.8,46.6,29.88,West,263,4.5,11.0,64,0.00,FEW,,0.00,473.0,WeatherDisplay:10.37,2013-09-15 09:06:00,
2013-09-15 11:11:00,58.9,46.7,29.88,West,259,3.8,5.0,64,0.00,FEW,,0.00,142.0,WeatherDisplay:10.37,2013-09-15 09:11:00,
2013-09-15 11:16:00,58.9,46.7,29.87,WSW,250,4.1,8.1,64,0.00,FEW,,0.00,568.0,WeatherDisplay:10.37,2013-09-15 09:16:00,
2013-09-15 11:21:00,59.2,47.4,29.87,WSW,246,9.2,11.5,65,0.00,FEW,,0.00,671.0,WeatherDisplay:10.37,2013-09-15 09:21:00,
2013-09-15 11:26:00,59.6,47.4,29.87,WSW,256,9.8,12.0,64,0.00,FEW,,0.00,580.0,WeatherDisplay:10.37,2013-09-15 09:26:00,
2013-09-15 11:31:00,59.8,47.6,29.87,West,261,5.2,9.2,64,0.00,FEW,,0.00,694.0,WeatherDisplay:10.37,2013-09-15 09:31:00,
2013-09-15 11:36:00,60.1,47.4,29.87,SW,234,7.0,8.1,63,0.00,FEW,,0.00,652.0,WeatherDisplay:10.37,2013-09-15 09:36:00,
2013-09-15 11:41:00,60.2,46.2,29.87,WSW,245,9.0,12.7,60,0.00,FEW,,0.00,689.0,WeatherDisplay:10.37,2013-09-15 09:41:00,
2013-09-15 11:46:00,60.2,47.5,29.87,WSW,240,2.9,5.8,63,0.00,FEW,,0.00,640.0,WeatherDisplay:10.37,2013-09-15 09:46:00,
2013-09-15 11:51:00,60.2,46.7,29.87,WSW,248,7.3,15.0,61,0.00,FEW,,0.00,606.0,WeatherDisplay:10.37,2013-09-15 09:51:00,
2013-09-15 11:56:00,60.0,46.0,29.86,SW,218,8.7,11.5,60,0.00,FEW,,0.00,680.0,WeatherDisplay:10.37,2013-09-15 09:56:00,
2013-09-15 12:00:00,59.1,46.5,29.86,WSW,251,6.8,12.0,63,0.00,BKN,,0.00,230.0,WeatherDisplay:10.37,2013-09-15 10:00:00,
2013-09-15 12:01:00,59.6,46.1,29.86,WSW,239,5.6,11.5,61,0.00,FEW,,0.00,109.0,WeatherDisplay:10.37,2013-09-15 10:01:00,
2013-09-15 12:02:00,59.1,46.5,29.86,WSW,244,6.2,8.1,63,0.00,BKN,,0.00,719.0,WeatherDisplay:10.37,2013-09-15 10:02:00,
2013-09-15 12:03:00,59.1,46.9,29.86,SW,215,7.5,11.5,64,0.00,BKN,,0.00,752.0,WeatherDisplay:10.37,2013-09-15 10:03:00,
2013-09-15 12:04:00,59.2,47.0,29.86,WSW,240,9.2,11.5,64,0.00,BKN,,0.00,752.0,WeatherDisplay:10.37,2013-09-15 10:04:00,
2013-09-15 12:06:00,59.2,46.6,29.86,SW,233,5.6,10.4,63,0.00,BKN,,0.00,125.0,WeatherDisplay:10.37,2013-09-15 10:06:00,
2013-09-15 12:11:00,59.1,46.9,29.86,WSW,243,6.7,9.2,64,0.00,BKN,,0.00,230.0,WeatherDisplay:10.37,2013-09-15 10:11:00,
2013-09-15 12:16:00,59.2,47.0,29.86,SW,233,8.5,11.5,64,0.00,BKN,,0.00,752.0,WeatherDisplay:10.37,2013-09-15 10:16:00,
2013-09-15 12:21:00,59.9,48.1,29.85,SW,228,3.0,9.2,65,0.00,BKN,,0.00,744.0,WeatherDisplay:10.37,2013-09-15 10:21:00,
2013-09-15 12:26:00,60.2,46.7,29.85,SW,215,5.0,9.2,61,0.00,BKN,,0.00,165.0,WeatherDisplay:10.37,2013-09-15 10:26:00,
2013-09-15 12:31:00,59.9,46.0,29.85,WSW,241,8.5,15.0,60,0.00,BKN,,0.00,162.0,WeatherDisplay:10.37,2013-09-15 10:31:00,
2013-09-15 12:36:00,59.7,46.2,29.85,SW,231,7.6,11.5,61,0.00,SCT,,0.00,680.0,WeatherDisplay:10.37,2013-09-15 10:36:00,
2013-09-15 12:41:00,59.6,46.1,29.85,WSW,238,6.1,11.5,61,0.00,SCT,,0.00,510.0,WeatherDisplay:10.37,2013-09-15 10:41:00,
2013-09-15 12:46:00,60.1,47.4,29.84,SW,234,10.4,13.8,63,0.00,SCT,,0.00,809.0,WeatherDisplay:10.37,2013-09-15 10:46:00,
2013-09-15 12:51:00,60.5,47.0,29.85,SW,230,8.1,15.0,61,0.00,SCT,,0.00,234.0,WeatherDisplay:10.37,2013-09-15 10:51:00,
2013-09-15 12:56:00,60.6,47.1,29.84,SW,220,8.0,10.4,61,0.00,SCT,,0.00,262.0,WeatherDisplay:10.37,2013-09-15 10:56:00,
2013-09-15 13:01:00,60.2,46.7,29.84,WSW,242,6.1,10.4,61,0.00,SCT,,0.00,216.0,WeatherDisplay:10.37,2013-09-15 11:01:00,
2013-09-15 13:06:00,59.8,46.7,29.84,SW,232,4.0,15.0,62,0.00,BKN,,0.00,707.0,WeatherDisplay:10.37,2013-09-15 11:06:00,
2013-09-15 13:11:00,59.9,46.4,29.83,SW,228,9.2,17.3,61,0.00,BKN,,0.00,181.0,WeatherDisplay:10.37,2013-09-15 11:11:00,
2013-09-15 13:16:00,59.8,46.7,29.83,SW,225,6.7,12.0,62,0.00,BKN,,0.00,731.0,WeatherDisplay:10.37,2013-09-15 11:16:00,
2013-09-15 13:21:00,59.7,46.2,29.83,WSW,246,7.8,11.5,61,0.00,BKN,,0.00,165.0,WeatherDisplay:10.37,2013-09-15 11:21:00,
2013-09-15 13:26:00,59.4,45.9,29.83,WSW,250,9.3,12.7,61,0.00,BKN,,0.00,195.0,WeatherDisplay:10.37,2013-09-15 11:26:00,
2013-09-15 13:31:00,59.4,46.4,29.83,WSW,247,10.6,11.5,62,0.00,BKN,,0.00,294.0,WeatherDisplay:10.37,2013-09-15 11:31:00,
2013-09-15 13:36:00,59.5,46.0,29.83,SW,236,9.5,18.4,61,0.00,OVC,,0.00,186.0,WeatherDisplay:10.37,2013-09-15 11:36:00,
2013-09-15 13:41:00,59.4,46.4,29.82,SW,227,10.0,15.0,62,0.00,OVC,,0.00,200.0,WeatherDisplay:10.37,2013-09-15 11:41:00,
2013-09-15 13:46:00,59.3,46.3,29.82,WSW,241,7.6,13.8,62,0.00,OVC,,0.00,251.0,WeatherDisplay:10.37,2013-09-15 11:46:00,
2013-09-15 13:51:00,59.4,46.8,29.82,WSW,240,7.2,12.7,63,0.00,OVC,,0.00,239.0,WeatherDisplay:10.37,2013-09-15 11:51:00,
2013-09-15 13:56:00,59.6,47.4,29.82,SW,228,7.8,12.7,64,0.00,OVC,,0.00,232.0,WeatherDisplay:10.37,2013-09-15 11:56:00,
2013-09-15 14:01:00,59.7,46.2,29.81,SSW,202,10.3,12.0,61,0.00,OVC,,0.00,218.0,WeatherDisplay:10.37,2013-09-15 12:01:00,
2013-09-15 14:06:00,59.6,46.1,29.81,SW,225,8.0,13.8,61,0.00,BKN,,0.00,257.0,WeatherDisplay:10.37,2013-09-15 12:06:00,
2013-09-15 14:11:00,59.6,46.5,29.81,SW,224,11.5,17.3,62,0.00,BKN,,0.00,652.0,WeatherDisplay:10.37,2013-09-15 12:11:00,
2013-09-15 14:16:00,60.0,46.5,29.81,SW,233,9.5,11.5,61,0.00,BKN,,0.00,251.0,WeatherDisplay:10.37,2013-09-15 12:16:00,
2013-09-15 14:21:00,60.2,46.7,29.81,SW,232,9.8,11.5,61,0.00,BKN,,0.00,271.0,WeatherDisplay:10.37,2013-09-15 12:21:00,
2013-09-15 14:26:00,60.1,47.0,29.80,SW,236,10.4,11.5,62,0.00,BKN,,0.00,413.0,WeatherDisplay:10.37,2013-09-15 12:26:00,
2013-09-15 14:30:00,60.2,47.1,29.80,SW,230,11.3,17.0,62,0.00,BKN,,0.00,287.0,WeatherDisplay:10.37,2013-09-15 12:30:00,
2013-09-15 14:31:00,60.2,47.5,29.80,SW,215,12.2,16.1,63,0.00,BKN,,0.00,253.0,WeatherDisplay:10.37,2013-09-15 12:31:00,
2013-09-15 14:32:00,59.9,46.8,29.79,SW,221,8.8,17.3,62,0.00,BKN,,0.00,287.0,WeatherDisplay:10.37,2013-09-15 12:32:00,
2013-09-15 14:33:00,59.9,46.8,29.79,SW,232,10.2,17.3,62,0.00,BKN,,0.00,301.0,WeatherDisplay:10.37,2013-09-15 12:33:00,
2013-09-15 14:34:00,60.0,46.9,29.79,SW,236,11.7,18.4,62,0.00,BKN,,0.00,299.0,WeatherDisplay:10.37,2013-09-15 12:34:00,
2013-09-15 14:35:00,60.0,46.9,29.79,SSW,198,10.4,19.0,62,0.00,BKN,,0.00,288.0,WeatherDisplay:10.37,2013-09-15 12:35:00,
2013-09-15 14:36:00,60.2,47.5,29.80,SW,225,11.8,13.0,63,0.00,BKN,,0.00,404.0,WeatherDisplay:10.37,2013-09-15 12:36:00,
2013-09-15 14:37:00,60.0,46.9,29.79,SW,230,12.6,17.3,62,0.00,BKN,,0.00,304.0,WeatherDisplay:10.37,2013-09-15 12:37:00,
2013-09-15 14:38:00,60.0,46.9,29.79,SW,225,10.3,15.0,62,0.00,BKN,,0.00,304.0,WeatherDisplay:10.37,2013-09-15 12:38:00,
2013-09-15 14:39:00,60.0,46.5,29.79,SW,216,11.3,16.1,61,0.00,BKN,,0.00,304.0,WeatherDisplay:10.37,2013-09-15 12:39:00,
2013-09-15 14:40:00,60.0,46.5,29.79,SSW,209,10.2,16.1,61,0.00,BKN,,0.00,301.0,WeatherDisplay:10.37,2013-09-15 12:40:00,
2013-09-15 14:41:00,60.2,47.1,29.80,SSW,201,10.6,15.0,62,0.00,BKN,,0.00,292.0,WeatherDisplay:10.37,2013-09-15 12:41:00,
2013-09-15 14:42:00,60.0,46.9,29.79,SW,226,9.3,15.0,62,0.00,BKN,,0.00,297.0,WeatherDisplay:10.37,2013-09-15 12:42:00,
2013-09-15 14:43:00,60.0,46.9,29.78,SW,215,7.4,14.0,62,0.00,BKN,,0.00,294.0,WeatherDisplay:10.37,2013-09-15 12:43:00,
2013-09-15 14:44:00,60.0,47.3,29.78,SW,228,9.5,15.0,63,0.00,BKN,,0.00,290.0,WeatherDisplay:10.37,2013-09-15 12:44:00,
2013-09-15 14:45:00,60.0,47.3,29.78,SW,215,10.6,13.0,63,0.00,BKN,,0.00,276.0,WeatherDisplay:10.37,2013-09-15 12:45:00,
2013-09-15 14:50:00,60.0,46.5,29.78,SSW,207,8.3,11.5,61,0.00,BKN,,0.00,306.0,WeatherDisplay:10.37,2013-09-15 12:50:00,
2013-09-15 14:52:00,59.9,46.4,29.78,SW,215,7.6,16.0,61,0.00,BKN,,0.00,341.0,WeatherDisplay:10.37,2013-09-15 12:52:00,
2013-09-15 14:55:00,60.0,46.9,29.79,SW,218,11.7,18.4,62,0.00,BKN,,0.00,299.0,WeatherDisplay:10.37,2013-09-15 12:55:00,
2013-09-15 15:00:00,60.0,46.5,29.79,SW,225,11.1,16.1,61,0.00,BKN,,0.00,304.0,WeatherDisplay:10.37,2013-09-15 13:00:00,
2013-09-15 15:05:00,60.0,47.3,29.78,SW,228,9.5,15.0,63,0.00,BKN,,0.00,290.0,WeatherDisplay:10.37,2013-09-15 13:05:00,
2013-09-15 15:10:00,60.0,46.5,29.78,SW,234,12.3,18.4,61,0.00,BKN,,0.00,294.0,WeatherDisplay:10.37,2013-09-15 13:10:00,
2013-09-15 15:15:00,60.0,47.3,29.78,SSW,211,6.9,13.8,63,0.00,BKN,,0.00,334.0,WeatherDisplay:10.37,2013-09-15 13:15:00,
2013-09-15 15:20:00,60.0,46.5,29.78,SW,234,11.4,19.6,61,0.00,BKN,,0.00,302.0,WeatherDisplay:10.37,2013-09-15 13:20:00,
2013-09-15 15:25:00,59.9,46.4,29.78,SSW,209,11.3,19.0,61,0.00,BKN,,0.00,276.0,WeatherDisplay:10.37,2013-09-15 13:25:00,
2013-09-15 15:30:00,59.8,46.3,29.78,WSW,238,14.5,20.7,61,0.00,BKN,,0.00,269.0,WeatherDisplay:10.37,2013-09-15 13:30:00,
2013-09-15 15:35:00,59.7,46.2,29.77,SSW,200,11.9,17.3,61,0.00,FEW,,0.00,262.0,WeatherDisplay:10.37,2013-09-15 13:35:00,
2013-09-15 15:36:00,59.5,46.9,29.77,SW,225,12.2,13.8,63,0.00,FEW,,0.00,211.0,WeatherDisplay:10.37,2013-09-15 13:36:00,
2013-09-15 15:37:00,59.5,47.3,29.77,SW,236,13.6,19.6,64,0.00,FEW,,0.00,202.0,WeatherDisplay:10.37,2013-09-15 13:37:00,
2013-09-15 15:38:00,59.4,46.8,29.77,WSW,245,10.3,17.3,63,0.00,FEW,,0.00,200.0,WeatherDisplay:10.37,2013-09-15 13:38:00,
2013-09-15 15:39:00,59.5,47.3,29.77,SW,221,9.9,13.8,64,0.00,FEW,,0.00,197.0,WeatherDisplay:10.37,2013-09-15 13:39:00,
2013-09-15 15:40:00,59.6,46.5,29.77,SW,225,12.1,17.3,62,0.00,FEW,,0.00,241.0,WeatherDisplay:10.37,2013-09-15 13:40:00,
2013-09-15 15:42:00,59.4,47.2,29.77,SSW,209,12.2,18.4,64,0.00,FEW,,0.00,199.0,WeatherDisplay:10.37,2013-09-15 13:42:00,
2013-09-15 15:43:00,59.4,47.2,29.77,WSW,239,10.6,18.4,64,0.00,FEW,,0.00,199.0,WeatherDisplay:10.37,2013-09-15 13:43:00,
2013-09-15 15:44:00,59.3,47.1,29.77,SW,224,12.8,16.1,64,0.00,FEW,,0.00,197.0,WeatherDisplay:10.37,2013-09-15 13:44:00,
2013-09-15 15:45:00,59.5,46.9,29.77,WSW,237,15.1,20.7,63,0.00,FEW,,0.00,223.0,WeatherDisplay:10.37,2013-09-15 13:45:00,
2013-09-15 15:46:00,59.3,46.3,29.77,SW,215,12.8,16.1,62,0.00,FEW,,0.00,197.0,WeatherDisplay:10.37,2013-09-15 13:46:00,
2013-09-15 15:47:00,59.3,46.3,29.77,SW,228,11.9,17.3,62,0.00,FEW,,0.00,199.0,WeatherDisplay:10.37,2013-09-15 13:47:00,
2013-09-15 15:48:00,59.3,45.8,29.77,SSW,210,12.4,16.1,61,0.00,FEW,,0.00,199.0,WeatherDisplay:10.37,2013-09-15 13:48:00,
2013-09-15 15:49:00,59.3,45.8,29.77,SSW,206,15.5,23.0,61,0.00,FEW,,0.00,200.0,WeatherDisplay:10.37,2013-09-15 13:49:00,
2013-09-15 15:50:00,59.4,47.2,29.77,SW,228,8.7,17.3,64,0.00,FEW,,0.00,199.0,WeatherDisplay:10.37,2013-09-15 13:50:00,
2013-09-15 15:51:00,59.3,46.3,29.76,SW,236,10.9,16.1,62,0.00,BKN,,0.00,213.0,WeatherDisplay:10.37,2013-09-15 13:51:00,
2013-09-15 15:55:00,59.4,47.2,29.77,SW,233,11.6,18.4,64,0.00,FEW,,0.00,199.0,WeatherDisplay:10.37,2013-09-15 13:55:00,
2013-09-15 16:00:00,59.3,45.8,29.76,SW,220,15.5,18.0,61,0.00,FEW,,0.00,200.0,WeatherDisplay:10.37,2013-09-15 14:00:00,
2013-09-15 16:05:00,59.3,46.7,29.76,SW,235,10.0,13.8,63,0.00,BKN,,0.00,220.0,WeatherDisplay:10.37,2013-09-15 14:05:00,
2013-09-15 16:10:00,59.4,47.2,29.76,SSW,209,10.3,12.0,64,0.00,BKN,,0.00,243.0,WeatherDisplay:10.37,2013-09-15 14:10:00,
2013-09-15 16:15:00,59.4,46.8,29.76,SW,217,9.3,15.0,63,0.00,BKN,,0.00,267.0,WeatherDisplay:10.37,2013-09-15 14:15:00,
2013-09-15 16:20:00,59.6,47.8,29.75,SW,221,8.3,16.1,65,0.00,BKN,,0.00,230.0,WeatherDisplay:10.37,2013-09-15 14:20:00,
2013-09-15 16:25:00,59.7,47.5,29.75,SSW,213,10.8,19.6,64,0.00,BKN,,0.00,232.0,WeatherDisplay:10.37,2013-09-15 14:25:00,
2013-09-15 16:30:00,59.7,47.5,29.74,SW,217,10.8,13.8,64,0.00,BKN,,0.00,248.0,WeatherDisplay:10.37,2013-09-15 14:30:00,
2013-09-15 16:35:00,59.8,47.6,29.74,SW,217,10.0,13.8,64,0.00,SCT,,0.00,336.0,WeatherDisplay:10.37,2013-09-15 14:35:00,
2013-09-15 16:40:00,60.1,47.4,29.74,SW,217,11.1,15.0,63,0.00,SCT,,0.00,253.0,WeatherDisplay:10.37,2013-09-15 14:40:00,
2013-09-15 16:45:00,60.2,47.5,29.73,SW,224,9.7,17.3,63,0.00,BKN,,0.00,156.0,WeatherDisplay:10.37,2013-09-15 14:45:00,
2013-09-15 16:50:00,60.1,47.9,29.73,SW,234,14.8,19.6,64,0.00,BKN,,0.00,128.0,WeatherDisplay:10.37,2013-09-15 14:50:00,
2013-09-15 16:51:00,59.3,49.5,29.72,SW,216,8.3,11.0,70,0.00,FEW,,0.00,72.0,WeatherDisplay:10.37,2013-09-15 14:51:00,
2013-09-15 16:52:00,59.2,49.4,29.72,SSW,213,6.6,11.5,70,0.00,FEW,,0.00,72.0,WeatherDisplay:10.37,2013-09-15 14:52:00,
2013-09-15 16:53:00,59.1,49.7,29.72,SSW,199,5.4,11.5,71,0.00,FEW,,0.00,72.0,WeatherDisplay:10.37,2013-09-15 14:53:00,
2013-09-15 16:54:00,59.1,49.7,29.72,SSW,202,7.2,12.7,71,0.00,FEW,,0.00,74.0,WeatherDisplay:10.37,2013-09-15 14:54:00,
2013-09-15 16:55:00,59.9,48.5,29.73,SSW,213,5.4,11.5,66,0.00,OVC,,0.00,100.0,WeatherDisplay:10.37,2013-09-15 14:55:00,
2013-09-15 17:00:00,59.5,49.3,29.72,SSW,213,5.9,7.0,69,0.00,OVC,,0.00,81.0,WeatherDisplay:10.37,2013-09-15 15:00:00,
2013-09-15 17:05:00,59.1,49.7,29.72,SSW,204,7.1,12.0,71,0.00,FEW,,0.00,74.0,WeatherDisplay:10.37,2013-09-15 15:05:00,
2013-09-15 17:10:00,58.6,50.0,29.71,SSW,192,5.3,15.0,73,0.00,FEW,,0.00,91.0,WeatherDisplay:10.37,2013-09-15 15:10:00,
2013-09-15 17:15:00,58.3,50.0,29.71,SW,229,5.9,10.4,74,0.00,FEW,,0.00,102.0,WeatherDisplay:10.37,2013-09-15 15:15:00,
2013-09-15 17:20:00,58.2,50.3,29.71,SSW,206,7.4,13.8,75,0.00,FEW,,0.00,105.0,WeatherDisplay:10.37,2013-09-15 15:20:00,
2013-09-15 17:25:00,58.2,50.3,29.71,SSW,213,3.9,7.0,75,0.00,FEW,,0.00,95.0,WeatherDisplay:10.37,2013-09-15 15:25:00,
2013-09-15 17:30:00,58.2,50.3,29.71,SSW,201,5.4,12.7,75,0.00,FEW,,0.00,98.0,WeatherDisplay:10.37,2013-09-15 15:30:00,
2013-09-15 17:35:00,58.2,50.3,29.70,SSW,202,7.7,15.0,75,0.00,-RA,,0.00,105.0,WeatherDisplay:10.37,2013-09-15 15:35:00,
2013-09-15 17:40:00,58.2,49.9,29.70,SSW,212,4.6,11.5,74,0.00,-RA,,0.00,120.0,WeatherDisplay:10.37,2013-09-15 15:40:00,
2013-09-15 17:45:00,58.3,50.0,29.70,SSW,209,4.5,11.5,74,0.00,-RA,,0.00,72.0,WeatherDisplay:10.37,2013-09-15 15:45:00,
2013-09-15 17:50:00,58.4,50.1,29.70,SW,220,8.1,13.0,74,0.00,-RA,,0.00,54.0,WeatherDisplay:10.37,2013-09-15 15:50:00,
2013-09-15 17:55:00,58.4,50.1,29.70,SW,219,4.5,9.2,74,0.00,-RA,,0.00,46.0,WeatherDisplay:10.37,2013-09-15 15:55:00,
2013-09-15 18:00:00,58.3,49.7,29.69,South,189,6.9,10.4,73,0.00,-RA,,0.00,35.0,WeatherDisplay:10.37,2013-09-15 16:00:00,
2013-09-15 18:05:00,58.3,49.7,29.69,SW,214,6.4,9.2,73,0.00,FEW,,0.00,33.0,WeatherDisplay:10.37,2013-09-15 16:05:00,
2013-09-15 18:10:00,58.3,49.7,29.69,SSW,196,6.1,12.0,73,0.00,FEW,,0.00,28.0,WeatherDisplay:10.37,2013-09-15 16:10:00,
2013-09-15 18:15:00,58.3,50.0,29.68,South,188,8.7,15.0,74,0.00,FEW,,0.00,37.0,WeatherDisplay:10.37,2013-09-15 16:15:00,
2013-09-15 18:20:00,58.2,50.3,29.68,SSW,204,5.1,8.1,75,0.00,FEW,,0.00,33.0,WeatherDisplay:10.37,2013-09-15 16:20:00,
2013-09-15 18:25:00,58.1,50.2,29.68,SSW,206,7.6,10.4,75,0.00,FEW,,0.00,26.0,WeatherDisplay:10.37,2013-09-15 16:25:00,
2013-09-15 18:30:00,58.1,50.2,29.68,SSW,213,7.5,12.7,75,0.00,FEW,,0.00,35.0,WeatherDisplay:10.37,2013-09-15 16:30:00,
2013-09-15 18:35:00,58.2,50.3,29.67,SSW,201,4.8,6.9,75,0.00,FEW,,0.00,44.0,WeatherDisplay:10.37,2013-09-15 16:35:00,
2013-09-15 18:40:00,58.2,50.3,29.67,SW,225,7.8,19.6,75,0.00,FEW,,0.00,32.0,WeatherDisplay:10.37,2013-09-15 16:40:00,
2013-09-15 18:45:00,58.1,50.2,29.67,SW,230,6.9,11.5,75,0.00,FEW,,0.00,18.0,WeatherDisplay:10.37,2013-09-15 16:45:00,
2013-09-15 18:50:00,58.0,50.5,29.66,SSW,200,4.9,8.1,76,0.00,FEW,,0.00,12.0,WeatherDisplay:10.37,2013-09-15 16:50:00,
2013-09-15 18:55:00,57.7,51.2,29.66,SW,221,10.2,14.0,79,0.01,RA,,0.01,14.0,WeatherDisplay:10.37,2013-09-15 16:55:00,
2013-09-15 19:00:00,56.9,51.4,29.66,SSW,207,5.7,11.5,82,0.02,RA,,0.02,18.0,WeatherDisplay:10.37,2013-09-15 17:00:00,
2013-09-15 19:05:00,56.3,51.5,29.65,South,184,4.1,6.9,84,0.02,RA,,0.02,14.0,WeatherDisplay:10.37,2013-09-15 17:05:00,
2013-09-15 19:10:00,55.9,51.4,29.65,SSW,200,7.7,11.5,85,0.02,RA,,0.02,7.0,WeatherDisplay:10.37,2013-09-15 17:10:00,
2013-09-15 19:15:00,55.7,51.6,29.65,South,176,8.4,15.0,86,0.03,RA,,0.03,5.0,WeatherDisplay:10.37,2013-09-15 17:15:00,
2013-09-15 19:20:00,55.5,51.7,29.65,SSW,205,7.3,13.0,87,0.03,RA,,0.03,7.0,WeatherDisplay:10.37,2013-09-15 17:20:00,
2013-09-15 19:25:00,55.4,51.6,29.64,SSE,153,8.4,15.0,87,0.03,RA,,0.03,5.0,WeatherDisplay:10.37,2013-09-15 17:25:00,
2013-09-15 19:29:00,55.4,51.9,29.64,SSW,207,4.6,15.0,88,0.03,RA,,0.03,0.0,WeatherDisplay:10.37,2013-09-15 17:29:00,
2013-09-15 19:30:00,55.4,51.9,29.64,SSW,200,9.0,13.8,88,0.03,RA,,0.03,5.0,WeatherDisplay:10.37,2013-09-15 17:30:00,
2013-09-15 19:31:00,55.4,51.9,29.64,SSW,195,6.4,11.5,88,0.03,BKN,,0.03,0.0,WeatherDisplay:10.37,2013-09-15 17:31:00,
2013-09-15 19:32:00,55.4,51.9,29.64,SSW,196,4.2,11.5,88,0.03,BKN,,0.03,0.0,WeatherDisplay:10.37,2013-09-15 17:32:00,
2013-09-15 19:33:00,55.5,52.0,29.64,SSW,201,5.1,9.0,88,0.03,BKN,,0.03,0.0,WeatherDisplay:10.37,2013-09-15 17:33:00,
2013-09-15 19:34:00,55.5,52.0,29.64,SW,218,6.8,14.0,88,0.03,BKN,,0.03,0.0,WeatherDisplay:10.37,2013-09-15 17:34:00,
2013-09-15 19:35:00,55.3,51.8,29.64,SSE,163,8.5,13.8,88,0.03,RA,,0.03,0.0,WeatherDisplay:10.37,2013-09-15 17:35:00,
2013-09-15 19:36:00,55.6,52.1,29.64,SSW,203,6.5,10.4,88,0.03,BKN,,0.03,0.0,WeatherDisplay:10.37,2013-09-15 17:36:00,
2013-09-15 19:37:00,55.6,51.8,29.63,SSW,209,7.7,15.0,87,0.03,BKN,,0.03,0.0,WeatherDisplay:10.37,2013-09-15 17:37:00,
2013-09-15 19:40:00,55.4,51.9,29.64,SSW,194,8.1,15.0,88,0.03,RA,,0.03,0.0,WeatherDisplay:10.37,2013-09-15 17:40:00,
2013-09-15 19:45:00,55.5,52.0,29.64,SW,218,6.8,14.0,88,0.03,BKN,,0.03,0.0,WeatherDisplay:10.37,2013-09-15 17:45:00,
2013-09-15 19:50:00,55.6,51.8,29.63,SW,226,9.3,17.3,87,0.03,BKN,,0.03,0.0,WeatherDisplay:10.37,2013-09-15 17:50:00,
2013-09-15 19:55:00,55.7,51.9,29.63,South,188,9.0,18.4,87,0.02,BKN,,0.03,0.0,WeatherDisplay:10.37,2013-09-15 17:55:00,
2013-09-15 20:00:00,55.8,52.0,29.63,South,189,7.0,15.0,87,0.02,BKN,,0.03,0.0,WeatherDisplay:10.37,2013-09-15 18:00:00,
2013-09-15 20:05:00,55.8,52.0,29.62,SW,215,8.4,19.6,87,0.01,-DZ,,0.03,0.0,WeatherDisplay:10.37,2013-09-15 18:05:00,
2013-09-15 20:10:00,55.7,52.2,29.62,South,190,8.2,12.7,88,0.01,-DZ,,0.03,0.0,WeatherDisplay:10.37,2013-09-15 18:10:00,
2013-09-15 20:15:00,55.5,52.0,29.62,SSW,196,7.5,11.0,88,0.01,-DZ,,0.03,0.0,WeatherDisplay:10.37,2013-09-15 18:15:00,
2013-09-15 20:20:00,55.4,52.2,29.62,SSW,205,6.5,12.7,89,0.00,-DZ,,0.03,0.0,WeatherDisplay:10.37,2013-09-15 18:20:00,
2013-09-15 20:25:00,55.4,52.2,29.61,SSW,201,4.9,6.9,89,0.00,-DZ,,0.03,0.0,WeatherDisplay:10.37,2013-09-15 18:25:00,
2013-09-15 20:30:00,55.4,52.2,29.61,SW,234,8.8,12.7,89,0.01,-DZ,,0.04,0.0,WeatherDisplay:10.37,2013-09-15 18:30:00,
2013-09-15 20:35:00,55.5,52.3,29.61,SSW,210,10.4,17.3,89,0.01,-RA,,0.04,0.0,WeatherDisplay:10.37,2013-09-15 18:35:00,
2013-09-15 20:40:00,55.6,52.4,29.61,SW,215,9.2,15.0,89,0.01,-RA,,0.04,0.0,WeatherDisplay:10.37,2013-09-15 18:40:00,
2013-09-15 20:45:00,55.7,52.2,29.61,SW,228,13.1,19.6,88,0.01,-RA,,0.04,0.0,WeatherDisplay:10.37,2013-09-15 18:45:00,
2013-09-15 20:50:00,55.7,52.2,29.61,SSW,209,8.4,17.3,88,0.01,-RA,,0.04,0.0,WeatherDisplay:10.37,2013-09-15 18:50:00,
2013-09-15 20:55:00,55.7,52.2,29.61,SW,232,7.6,11.5,88,0.01,-RA,,0.04,0.0,WeatherDisplay:10.37,2013-09-15 18:55:00,
2013-09-15 21:00:00,55.7,52.2,29.61,SW,230,8.4,13.8,88,0.01,-RA,,0.04,0.0,WeatherDisplay:10.37,2013-09-15 19:00:00,
2013-09-15 21:05:00,55.7,52.2,29.60,WSW,243,6.3,11.5,88,0.01,BKN,,0.04,0.0,WeatherDisplay:10.37,2013-09-15 19:05:00,
2013-09-15 21:06:00,55.6,52.4,29.59,SSW,192,5.8,16.1,89,0.01,BKN,,0.04,0.0,WeatherDisplay:10.37,2013-09-15 19:06:00,
2013-09-15 21:07:00,55.6,52.4,29.59,SW,217,7.5,16.1,89,0.01,BKN,,0.04,0.0,WeatherDisplay:10.37,2013-09-15 19:07:00,
2013-09-15 21:08:00,55.5,52.3,29.59,South,184,12.5,19.6,89,0.01,BKN,,0.04,0.0,WeatherDisplay:10.37,2013-09-15 19:08:00,
2013-09-15 21:09:00,55.6,52.4,29.59,South,183,9.6,19.6,89,0.01,BKN,,0.04,0.0,WeatherDisplay:10.37,2013-09-15 19:09:00,
2013-09-15 21:10:00,55.5,52.0,29.59,SSW,201,6.4,15.0,88,0.01,BKN,,0.04,0.0,WeatherDisplay:10.37,2013-09-15 19:10:00,
2013-09-15 21:15:00,55.5,52.3,29.59,SSW,205,12.6,19.6,89,0.01,BKN,,0.04,0.0,WeatherDisplay:10.37,2013-09-15 19:15:00,
2013-09-15 21:20:00,55.6,52.4,29.59,South,183,9.6,19.6,89,0.01,BKN,,0.04,0.0,WeatherDisplay:10.37,2013-09-15 19:20:00,
2013-09-15 21:25:00,55.6,52.4,29.59,SW,229,7.5,13.8,89,0.01,BKN,,0.04,0.0,WeatherDisplay:10.37,2013-09-15 19:25:00,
2013-09-15 21:30:00,55.5,52.3,29.58,South,188,9.6,16.1,89,0.00,BKN,,0.04,0.0,WeatherDisplay:10.37,2013-09-15 19:30:00,
2013-09-15 21:35:00,55.5,52.3,29.58,South,180,9.5,16.1,89,0.00,BKN,,0.04,0.0,WeatherDisplay:10.37,2013-09-15 19:35:00,
2013-09-15 21:40:00,55.5,52.3,29.58,South,176,10.0,15.0,89,0.00,BKN,,0.04,0.0,WeatherDisplay:10.37,2013-09-15 19:40:00,
2013-09-15 21:45:00,55.5,52.3,29.57,SSW,195,8.6,18.4,89,0.00,BKN,,0.04,0.0,WeatherDisplay:10.37,2013-09-15 19:45:00,
2013-09-15 21:50:00,55.5,52.6,29.57,SSW,201,9.9,13.8,90,0.01,RA,,0.05,0.0,WeatherDisplay:10.37,2013-09-15 19:50:00,
2013-09-15 21:55:00,55.5,52.6,29.57,SSW,197,10.5,17.3,90,0.01,RA,,0.05,0.0,WeatherDisplay:10.37,2013-09-15 19:55:00,
2013-09-15 22:00:00,55.3,52.4,29.57,SSW,199,10.3,19.6,90,0.02,RA,,0.06,0.0,WeatherDisplay:10.37,2013-09-15 20:00:00,
2013-09-15 22:05:00,55.3,52.4,29.57,SW,217,10.2,18.4,90,0.02,-DZ,,0.06,0.0,WeatherDisplay:10.37,2013-09-15 20:05:00,
2013-09-15 22:10:00,55.2,52.6,29.56,South,184,5.2,19.6,91,0.02,-DZ,,0.06,0.0,WeatherDisplay:10.37,2013-09-15 20:10:00,
2013-09-15 22:15:00,55.2,52.6,29.56,SSW,213,12.0,15.0,91,0.02,-DZ,,0.06,0.0,WeatherDisplay:10.37,2013-09-15 20:15:00,
2013-09-15 22:20:00,55.1,52.5,29.56,South,186,8.9,16.1,91,0.02,-DZ,,0.06,0.0,WeatherDisplay:10.37,2013-09-15 20:20:00,
2013-09-15 22:25:00,55.1,52.8,29.56,South,188,9.4,18.4,92,0.04,-DZ,,0.08,0.0,WeatherDisplay:10.37,2013-09-15 20:25:00,
2013-09-15 22:30:00,55.0,52.7,29.55,SSW,195,6.6,11.5,92,0.05,-DZ,,0.09,0.0,WeatherDisplay:10.37,2013-09-15 20:30:00,
2013-09-15 22:35:00,54.9,52.6,29.55,SSW,207,7.2,11.5,92,0.05,RA,,0.09,0.0,WeatherDisplay:10.37,2013-09-15 20:35:00,
2013-09-15 22:40:00,54.9,52.6,29.54,South,180,9.9,16.1,92,0.05,RA,,0.09,0.0,WeatherDisplay:10.37,2013-09-15 20:40:00,
2013-09-15 22:45:00,54.9,52.9,29.54,SSW,204,7.9,12.7,93,0.05,RA,,0.09,0.0,WeatherDisplay:10.37,2013-09-15 20:45:00,
2013-09-15 22:50:00,54.9,52.9,29.54,SSW,209,12.0,20.7,93,0.04,RA,,0.09,0.0,WeatherDisplay:10.37,2013-09-15 20:50:00,
2013-09-15 22:55:00,54.9,52.9,29.54,SW,230,7.1,21.9,93,0.04,BKN,,0.09,0.0,WeatherDisplay:10.37,2013-09-15 20:55:00,
2013-09-15 23:00:00,54.9,52.9,29.54,SSW,209,7.2,15.0,93,0.03,BKN,,0.09,0.0,WeatherDisplay:10.37,2013-09-15 21:00:00,
2013-09-15 23:05:00,54.9,52.9,29.53,SSW,201,5.9,12.0,93,0.04,-RA,,0.10,0.0,WeatherDisplay:10.37,2013-09-15 21:05:00,
2013-09-15 23:10:00,54.9,52.9,29.53,South,188,10.8,19.6,93,0.05,-RA,,0.10,0.0,WeatherDisplay:10.37,2013-09-15 21:10:00,
2013-09-15 23:15:00,54.9,52.9,29.53,SSW,205,8.5,12.7,93,0.04,-RA,,0.10,0.0,WeatherDisplay:10.37,2013-09-15 21:15:00,
2013-09-15 23:20:00,55.0,53.0,29.53,SSW,198,7.8,12.7,93,0.04,-RA,,0.10,0.0,WeatherDisplay:10.37,2013-09-15 21:20:00,
2013-09-15 23:25:00,55.0,53.0,29.52,SW,219,7.4,16.1,93,0.02,-RA,,0.10,0.0,WeatherDisplay:10.37,2013-09-15 21:25:00,
2013-09-15 23:30:00,55.0,53.3,29.52,SSW,205,12.3,24.2,94,0.02,-RA,,0.11,0.0,WeatherDisplay:10.37,2013-09-15 21:30:00,
2013-09-15 23:35:00,55.0,53.3,29.51,SSW,207,11.8,20.7,94,0.03,RA,,0.12,0.0,WeatherDisplay:10.37,2013-09-15 21:35:00,
2013-09-15 23:40:00,55.0,53.3,29.51,SSW,207,10.8,18.4,94,0.03,RA,,0.12,0.0,WeatherDisplay:10.37,2013-09-15 21:40:00,
2013-09-15 23:45:00,55.0,53.3,29.51,SW,214,10.3,15.0,94,0.03,RA,,0.12,0.0,WeatherDisplay:10.37,2013-09-15 21:45:00,
2013-09-15 23:50:00,55.0,53.3,29.51,SSW,198,9.5,16.1,94,0.03,RA,,0.12,0.0,WeatherDisplay:10.37,2013-09-15 21:50:00,
2013-09-15 23:55:00,55.0,53.3,29.51,SSW,204,8.2,15.0,94,0.04,RA,,0.13,0.0,WeatherDisplay:10.37,2013-09-15 21:55:00,